Location: Unspecified
(0.0000°N, 0.0000°E)
Time: 18:15:10
(UTC+00:00)

CUTE 1.7 + AOD 2 - Visible Passes

Search period start: 17 May 2026 00:00
Search period end: 27 May 2026 00:00
Orbit: 532 x 546 km, 97.8° (Epoch: 17 May)

Date Brightness Start Highest point End Pass type
(mag) Time Alt. Az. Time Alt. Az. Time Alt. Az.
17 May ? 04:27:01 10° N 04:30:00 39° NW 04:30:00 39° NW visible
18 May ? 04:19:10 10° N 04:22:13 48° NNW 04:22:13 48° NNW visible
19 May ? 04:11:24 10° N 04:14:25 54° N 04:14:25 54° N visible
20 May ? 04:03:40 10° NNE 04:06:37 50° NNE 04:06:37 50° NNE visible
21 May ? 03:56:00 10° NNE 03:58:49 41° NE 03:58:49 41° NE visible
22 May ? 03:48:24 10° NNE 03:50:59 32° ENE 03:50:59 32° ENE visible
23 May ? 03:40:53 10° NE 03:43:10 25° ENE 03:43:10 25° ENE visible
24 May ? 03:33:27 10° NE 03:35:20 19° ENE 03:35:20 19° ENE visible
24 May ? 05:09:42 10° WNW 05:10:43 11° WNW 05:10:48 11° W visible
25 May ? 03:26:10 10° ENE 03:27:29 15° ENE 03:27:29 15° ENE visible
25 May ? 05:00:47 10° NW 05:02:57 15° WNW 05:02:57 15° WNW visible
26 May ? 03:19:08 10° ENE 03:19:38 11° E 03:19:38 11° E visible
26 May ? 04:52:24 10° NNW 04:55:06 19° WNW 04:55:06 19° WNW visible
